This is the latest recevied weather packets stored in our database for station/object AD8IZ-13. If no packets are shown the sender has not sent any weather packets the latest 1 day(s).
| Time | Temp. | Humidity | Pressure | Rain* | Wind** | Luminosity | Snow |
|---|---|---|---|---|---|---|---|
| 1836274691 | 22.78° C | 72% | 1019.1 hPa | 0 mm | 0.45 m/s, 49° | 0 W/m² | - |
| 1836274541 | 22.78° C | 72% | 1019 hPa | 0 mm | 0.89 m/s, 53° | 0 W/m² | - |
| 1836274094 | 22.78° C | 71% | 1019 hPa | 0 mm | 0.45 m/s, 93° | 0 W/m² | - |
| 1778051120 | 10° C | 98% | 1007.1 hPa | 1.78 mm | 1.34 m/s, 321° | 0 W/m² | - |
| 1778050517 | 10° C | 98% | 1007.2 hPa | 1.52 mm | 1.34 m/s, 328° | 0 W/m² | - |
| 1778049918 | 10.56° C | 98% | 1007.2 hPa | 1.27 mm | 0.45 m/s, 308° | 0 W/m² | - |
| 1778049321 | 10.56° C | 98% | 1007.1 hPa | 1.52 mm | 0.45 m/s, 319° | 0 W/m² | - |
| 1778048718 | 10.56° C | 98% | 1007.1 hPa | 1.52 mm | 0.89 m/s, 307° | 0 W/m² | - |
| 1778048118 | 10.56° C | 98% | 1007 hPa | 1.02 mm | 0 m/s | 0 W/m² | - |
| 1778047518 | 10.56° C | 98% | 1007.1 hPa | 0.76 mm | 0.45 m/s, 293° | 0 W/m² | - |
| 1778046918 | 11.11° C | 98% | 1007.2 hPa | 0.76 mm | 0.45 m/s, 285° | 0 W/m² | - |
| 1778046321 | 11.11° C | 98% | 1007.4 hPa | 0.51 mm | 0.45 m/s, 314° | 0 W/m² | - |
| 1778045719 | 11.11° C | 98% | 1007.3 hPa | 0.25 mm | 0 m/s | 0 W/m² | - |
| 1778045120 | 11.11° C | 98% | 1007.3 hPa | 0 mm | 0 m/s | 0 W/m² | - |
| 1778043919 | 11.11° C | 98% | 1007.5 hPa | 0 mm | 0 m/s | 0 W/m² | - |
| 1778043319 | 11.11° C | 98% | 1007.5 hPa | 0 mm | 0 m/s | 0 W/m² | - |
| 1778042720 | 11.67° C | 98% | 1007.5 hPa | 0.25 mm | 0.45 m/s, 323° | 0 W/m² | - |
| 1778042121 | 12.22° C | 98% | 1007.7 hPa | 0.76 mm | 0 m/s | 0 W/m² | - |
| 1778041520 | 12.78° C | 98% | 1007.6 hPa | 1.52 mm | 0.45 m/s, 329° | 0 W/m² | - |
| 1778040919 | 13.89° C | 98% | 1007.6 hPa | 2.03 mm | 0.89 m/s, 319° | 0 W/m² | - |
| 1778040319 | 14.44° C | 98% | 1007.5 hPa | 2.79 mm | 0 m/s | 0 W/m² | - |
| 1778039721 | 14.44° C | 98% | 1007.6 hPa | 3.05 mm | 0.45 m/s, 176° | 0 W/m² | - |
| 1778039121 | 14.44° C | 98% | 1007.9 hPa | 2.79 mm | 0 m/s | 0 W/m² | - |
| 1778038518 | 14.44° C | 98% | 1008 hPa | 2.79 mm | 0.45 m/s, 200° | 0 W/m² | - |
| 1778037918 | 14.44° C | 98% | 1008.1 hPa | 2.79 mm | 0 m/s | 0 W/m² | - |
* Rain latest hour (hover to see other rain measurements)
** Current wind speed in m/s (hover to see current wind gust speed)